Rochester/St. Mary\'s Hospita, MN

8:41 PM CDT on June 22, 2018 (GMT -0500)
Rochester/St. Mary\'s Hospita

Weather History for K9MN - October, 2017

Change the Weather History Date:

Tuesday, October 24, 2017

  Actual Average (KRST) Record (KRST)
Temperature  
Mean Temperature 44 °F -  
Max Temperature 49 °F 55 °F 76 °F (1963)
Min Temperature 39 °F 36 °F 12 °F (1936)
Degree Days  
Heating Degree Days 22    
Moisture  
Dew Point 29 °F    
Average Humidity 58    
Maximum Humidity 75    
Minimum Humidity 32    
Precipitation  
Precipitation 0.00 in - - ()
Sea Level Pressure  
Sea Level Pressure 29.81 in    
Wind  
Wind Speed 20 mph (WNW)    
Max Wind Speed 32 mph    
Max Gust Speed 43 mph    
Visibility 10 miles    
Events      
Averages and records for this station are not official NWS values.
T = Trace of Precipitation, MM = Missing Value Source: NWS Daily Summary

Daily Weather History Graph

Daily Weather History Graph

Search for Another Location

Airport or City:

Astronomy

Oct. 24, 2017 Rise Set
Actual Time 7:36 AM CDT 6:11 PM CDT
Civil Twilight 7:06 AM CDT 6:40 PM CDT
Nautical Twilight 6:33 AM CDT 7:14 PM CDT
Astronomical Twilight 5:59 AM CDT 7:47 PM CDT
Moon 12:01 PM CDT (10/24) 9:39 PM CDT (10/24)
Length of Visible Light 11h 33m
Length of Day
10h 34m
Waxing Crescent, 21% of the Moon is Illuminated
Oct 24
Waxing Crescent
Oct 27
First Quarter
Nov 4
Full
Nov 10
Last Quarter
Nov 18
New

Hourly Weather History & Observations

Time (CDT) Temp. Windchill Dew Point Humidity Pressure Visibility Wind Dir Wind Speed Gust Speed Precip Events Conditions
12:12 AM 45.1 °F 37.3 °F 29.8 °F 55% 29.77 in 10.0 mi WNW 19.6 mph 26.5 mph N/A   Overcast
12:32 AM 45.5 °F 38.1 °F 29.1 °F 53% 29.77 in 10.0 mi WNW 18.4 mph 25.3 mph N/A   Overcast
1:12 AM 44.6 °F 36.9 °F 28.6 °F 53% 29.76 in 10.0 mi WNW 18.4 mph 35.7 mph N/A   Overcast
1:31 AM 44.4 °F 36.9 °F 29.3 °F 55% 29.76 in 10.0 mi WNW 17.3 mph 29.9 mph N/A   Overcast
1:52 AM 43.7 °F 36.6 °F 29.1 °F 57% 29.76 in 10.0 mi WNW 15.0 mph 28.8 mph N/A   Overcast
2:12 AM 43.0 °F 33.8 °F 29.7 °F 59% 29.75 in 10.0 mi WNW 23.0 mph 32.2 mph N/A   Overcast
2:32 AM 42.6 °F 34.0 °F 29.8 °F 61% 29.76 in 10.0 mi WNW 19.6 mph 32.2 mph N/A   Overcast
3:12 AM 41.5 °F 32.6 °F 30.2 °F 64% 29.75 in 10.0 mi NW 19.6 mph 33.4 mph N/A   Overcast
3:32 AM 41.0 °F 31.4 °F 30.0 °F 65% 29.75 in 10.0 mi WNW 21.9 mph 32.2 mph N/A   Overcast
3:52 AM 40.6 °F 31.7 °F 30.2 °F 66% 29.75 in 10.0 mi WNW 18.4 mph 28.8 mph N/A   Overcast
4:12 AM 40.6 °F 30.9 °F 30.4 °F 67% 29.75 in 10.0 mi WNW 21.9 mph 33.4 mph N/A   Overcast
4:32 AM 40.8 °F 31.1 °F 30.9 °F 68% 29.75 in 10.0 mi WNW 21.9 mph 29.9 mph N/A   Overcast
4:52 AM 40.8 °F 31.1 °F 31.1 °F 68% 29.75 in 10.0 mi WNW 21.9 mph 33.4 mph N/A   Overcast
5:12 AM 41.0 °F 31.6 °F 31.1 °F 68% 29.75 in 10.0 mi WNW 20.7 mph 28.8 mph N/A   Overcast
5:31 AM 41.0 °F 31.6 °F 31.5 °F 69% 29.76 in 10.0 mi WNW 20.7 mph 31.1 mph N/A   Overcast
5:52 AM 41.4 °F 33.6 °F 32.0 °F 69% 29.76 in 10.0 mi WNW 15.0 mph 27.6 mph N/A   Overcast
6:12 AM 41.4 °F 31.6 °F 32.0 °F 69% 29.76 in 10.0 mi WNW 23.0 mph 29.9 mph N/A   Overcast
6:32 AM 41.2 °F 30.7 °F 32.0 °F 70% 29.76 in 10.0 mi WNW 26.5 mph 34.5 mph N/A   Overcast
6:52 AM 41.2 °F 33.0 °F 32.0 °F 70% 29.77 in 10.0 mi WNW 16.1 mph 35.7 mph N/A   Overcast
7:11 AM 41.2 °F 31.6 °F 32.2 °F 70% 29.76 in 10.0 mi WNW 21.9 mph 35.7 mph N/A   Overcast
7:32 AM 41.4 °F 31.4 °F 32.4 °F 70% 29.76 in 10.0 mi WNW 24.2 mph 31.1 mph N/A   Overcast
7:52 AM 41.5 °F 32.4 °F 32.0 °F 69% 29.77 in 10.0 mi NW 20.7 mph 34.5 mph N/A   Overcast
8:12 AM 41.2 °F 31.9 °F 32.0 °F 70% 29.78 in 10.0 mi WNW 20.7 mph 34.5 mph N/A   Overcast
8:32 AM 41.0 °F 31.6 °F 31.8 °F 70% 29.79 in 10.0 mi NW 20.7 mph 29.9 mph N/A   Overcast
8:52 AM 40.5 °F 30.4 °F 31.1 °F 69% 29.80 in 10.0 mi NW 23.0 mph 36.8 mph N/A   Overcast
9:12 AM 39.4 °F 30.7 °F 32.0 °F 75% 29.81 in 10.0 mi WNW 16.1 mph 34.5 mph N/A   Overcast
9:32 AM 39.2 °F 28.3 °F 31.3 °F 73% 29.80 in 10.0 mi WNW 25.3 mph 34.5 mph N/A   Overcast
9:52 AM 39.6 °F 29.2 °F 30.0 °F 69% 29.81 in 10.0 mi WNW 23.0 mph 36.8 mph N/A   Overcast
10:11 AM 39.9 °F 29.5 °F 29.7 °F 67% 29.81 in 10.0 mi WNW 24.2 mph 38.0 mph N/A   Overcast
10:32 AM 40.1 °F 29.9 °F 29.7 °F 66% 29.82 in 10.0 mi WNW 23.0 mph 34.5 mph N/A   Overcast
10:52 AM 40.6 °F 29.8 °F 30.0 °F 66% 29.81 in 10.0 mi WNW 27.6 mph 35.7 mph N/A   Overcast
11:11 AM 41.7 °F 32.6 °F 30.2 °F 64% 29.82 in 10.0 mi WNW 20.7 mph 36.8 mph N/A   Overcast
11:32 AM 41.0 °F 31.6 °F 29.8 °F 64% 29.83 in 10.0 mi NW 20.7 mph 38.0 mph N/A   Overcast
11:52 AM 41.9 °F 32.6 °F 30.0 °F 63% 29.83 in 10.0 mi WNW 21.9 mph 31.1 mph N/A   Overcast
12:11 PM 42.3 °F 33.1 °F 30.0 °F 62% 29.83 in 10.0 mi WNW 21.9 mph 36.8 mph N/A   Overcast
12:32 PM 43.0 °F 33.5 °F 30.2 °F 61% 29.83 in 10.0 mi WNW 24.2 mph 38.0 mph N/A   Mostly Cloudy
12:52 PM 43.2 °F 34.5 °F 30.2 °F 60% 29.82 in 10.0 mi West 20.7 mph 33.4 mph N/A   Overcast
1:11 PM 43.7 °F 33.2 °F 29.5 °F 57% 29.81 in 10.0 mi WNW 32.2 mph 42.6 mph N/A   Mostly Cloudy
1:32 PM 45.1 °F 37.3 °F 28.6 °F 52% 29.83 in 10.0 mi NW 19.6 mph 36.8 mph N/A   Scattered Clouds
1:52 PM 45.5 °F 36.5 °F 28.0 °F 51% 29.82 in 10.0 mi WNW 26.5 mph 40.3 mph N/A   Clear
2:11 PM 46.0 °F 37.6 °F 27.7 °F 49% 29.82 in 10.0 mi WNW 24.2 mph 39.1 mph N/A   Scattered Clouds
2:32 PM 46.8 °F - 26.4 °F 45% 29.83 in 10.0 mi WNW 24.2 mph 35.7 mph N/A   Scattered Clouds
2:52 PM 47.3 °F - 25.0 °F 42% 29.82 in 10.0 mi WNW 27.6 mph 36.8 mph N/A   Clear
3:11 PM 48.2 °F - 24.4 °F 39% 29.82 in 10.0 mi WNW 23.0 mph 31.1 mph N/A   Clear
3:32 PM 48.4 °F - 24.3 °F 39% 29.82 in 10.0 mi WNW 24.2 mph 42.6 mph N/A   Clear
3:52 PM 48.4 °F - 23.9 °F 38% 29.84 in 10.0 mi WNW 27.6 mph 39.1 mph N/A   Clear
4:11 PM 48.7 °F - 22.1 °F 35% 29.84 in 10.0 mi WNW 23.0 mph 36.8 mph N/A   Clear
4:32 PM 48.7 °F - 21.0 °F 34% 29.84 in 10.0 mi WNW 26.5 mph 35.7 mph N/A   Clear
4:52 PM 48.4 °F - 19.8 °F 32% 29.85 in 10.0 mi WNW 21.9 mph 36.8 mph N/A   Clear
5:11 PM 48.2 °F - 19.4 °F 32% 29.84 in 10.0 mi WNW 28.8 mph 36.8 mph N/A   Clear
5:32 PM 47.7 °F - 19.0 °F 32% 29.85 in 10.0 mi WNW 20.7 mph 33.4 mph N/A   Clear
5:52 PM 47.3 °F - 20.5 °F 35% 29.86 in 10.0 mi WNW 21.9 mph 28.8 mph N/A   Clear
6:11 PM 46.4 °F 39.2 °F 21.6 °F 37% 29.86 in 10.0 mi WNW 18.4 mph 26.5 mph N/A   Clear
6:32 PM 45.5 °F 38.9 °F 23.0 °F 41% 29.87 in 10.0 mi WNW 15.0 mph 18.4 mph N/A   Clear
6:52 PM 45.1 °F 38.4 °F 24.4 °F 44% 29.87 in 10.0 mi WNW 15.0 mph 26.5 mph N/A   Clear
7:11 PM 44.6 °F 37.2 °F 24.8 °F 46% 29.88 in 10.0 mi WNW 17.3 mph 25.3 mph N/A   Clear
7:32 PM 43.7 °F 35.2 °F 28.2 °F 54% 29.87 in 10.0 mi WNW 20.7 mph 28.8 mph N/A   Clear
7:51 PM 43.2 °F 35.6 °F 28.6 °F 56% 29.87 in 10.0 mi WNW 16.1 mph 31.1 mph N/A   Clear
8:12 PM 43.0 °F 34.8 °F 28.9 °F 58% 29.88 in 10.0 mi WNW 18.4 mph 25.3 mph N/A   Clear
8:32 PM 42.6 °F 33.8 °F 29.5 °F 60% 29.87 in 10.0 mi WNW 20.7 mph 27.6 mph N/A   Clear
8:52 PM 42.3 °F 33.8 °F 28.8 °F 59% 29.87 in 10.0 mi WNW 18.4 mph 28.8 mph N/A   Clear
9:12 PM 42.3 °F 32.6 °F 28.2 °F 58% 29.87 in 10.0 mi WNW 24.2 mph 31.1 mph N/A   Clear
9:32 PM 41.9 °F 33.4 °F 28.8 °F 60% 29.88 in 10.0 mi WNW 18.4 mph 28.8 mph N/A   Clear
9:52 PM 41.2 °F 33.0 °F 29.3 °F 63% 29.88 in 10.0 mi WNW 16.1 mph 23.0 mph N/A   Clear
10:12 PM 41.0 °F 32.8 °F 30.0 °F 65% 29.88 in 10.0 mi WNW 16.1 mph 25.3 mph N/A   Clear
10:32 PM 41.0 °F 33.9 °F 30.4 °F 66% 29.87 in 10.0 mi WNW 12.7 mph 21.9 mph N/A   Clear
10:52 PM 40.6 °F 32.3 °F 30.7 °F 68% 29.87 in 10.0 mi WNW 16.1 mph 21.9 mph N/A   Clear
11:12 PM 40.3 °F 33.9 °F 30.9 °F 69% 29.87 in 10.0 mi WNW 10.4 mph - N/A   Clear
11:32 PM 40.1 °F 33.2 °F 30.9 °F 70% 29.85 in 10.0 mi West 11.5 mph - N/A   Clear
11:51 PM 40.1 °F 33.6 °F 30.9 °F 70% 29.86 in 10.0 mi West 10.4 mph - N/A   Clear